Wetterdaten: Dienstag, 05.05.2015
Datum Zeit Auen-Temp. Temp gefhlt Luftfeuchte Luftdruck Regen Wind Richtung Richtung Taupunkt Windben
05.05.2015 00:00 13,3 C 14,7 C 87 % 1009,4 hPa 0,0 mm 0,0 km/h (0 Bft) S-SO 157 11,2 C 0,0 km/h (0 Bft)
05.05.2015 00:05 13,4 C 14,7 C 88 % 1009,4 hPa 0,0 mm 0,0 km/h (0 Bft) S-SO 157 11,5 C 0,0 km/h (0 Bft)
05.05.2015 00:10 13,2 C 14,7 C 88 % 1009,4 hPa 0,0 mm 0,0 km/h (0 Bft) S-SO 157 11,3 C 0,0 km/h (0 Bft)
05.05.2015 00:15 13,2 C 14,7 C 88 % 1009,1 hPa 0,0 mm 0,0 km/h (0 Bft) S-SO 157 11,3 C 0,0 km/h (0 Bft)
05.05.2015 00:20 13,1 C 14,7 C 87 % 1009,1 hPa 0,0 mm 0,0 km/h (0 Bft) S-SO 157 11,0 C 0,0 km/h (0 Bft)
05.05.2015 00:25 13,1 C 14,7 C 87 % 1009,1 hPa 0,0 mm 0,0 km/h (0 Bft) S-SO 157 11,0 C 0,0 km/h (0 Bft)
05.05.2015 00:30 13,3 C 14,7 C 85 % 1009,1 hPa 0,0 mm 0,0 km/h (0 Bft) S-SO 157 10,8 C 0,0 km/h (0 Bft)
05.05.2015 00:35 13,4 C 14,7 C 85 % 1008,7 hPa 0,0 mm 0,0 km/h (0 Bft) S-SO 157 10,9 C 0,0 km/h (0 Bft)
05.05.2015 00:40 13,7 C 14,7 C 85 % 1008,7 hPa 0,0 mm 0,0 km/h (0 Bft) S-SO 157 11,2 C 0,0 km/h (0 Bft)
05.05.2015 00:45 13,8 C 14,7 C 85 % 1008,7 hPa 0,0 mm 0,0 km/h (0 Bft) S-SO 157 11,3 C 0,0 km/h (0 Bft)
05.05.2015 00:50 13,9 C 14,7 C 86 % 1008,7 hPa 0,0 mm 0,0 km/h (0 Bft) S-SO 157 11,6 C 0,0 km/h (0 Bft)
05.05.2015 00:55 14,1 C 14,7 C 84 % 1008,8 hPa 0,0 mm 0,0 km/h (0 Bft) S-SO 157 11,4 C 0,0 km/h (0 Bft)
05.05.2015 01:00 14,3 C 14,7 C 84 % 1008,8 hPa 0,0 mm 0,0 km/h (0 Bft) S-SO 157 11,6 C 0,0 km/h (0 Bft)
05.05.2015 01:05 14,6 C 14,7 C 83 % 1008,8 hPa 0,0 mm 0,0 km/h (0 Bft) S-SO 157 11,7 C 0,0 km/h (0 Bft)
05.05.2015 01:10 14,7 C 14,7 C 81 % 1008,8 hPa 0,0 mm 0,0 km/h (0 Bft) S-SO 157 11,5 C 0,0 km/h (0 Bft)
05.05.2015 01:15 14,7 C 14,7 C 80 % 1008,2 hPa 0,0 mm 0,0 km/h (0 Bft) S-SO 157 11,3 C 0,0 km/h (0 Bft)
05.05.2015 01:20 14,8 C 14,8 C 79 % 1008,2 hPa 0,0 mm 0,0 km/h (0 Bft) S-SO 157 11,2 C 0,0 km/h (0 Bft)
05.05.2015 01:25 14,6 C 14,7 C 78 % 1008,2 hPa 0,0 mm 0,0 km/h (0 Bft) S-SO 157 10,8 C 0,0 km/h (0 Bft)
05.05.2015 01:30 14,5 C 14,7 C 78 % 1008,2 hPa 0,0 mm 0,0 km/h (0 Bft) S-SO 157 10,7 C 0,0 km/h (0 Bft)
05.05.2015 01:35 14,7 C 14,7 C 77 % 1008,7 hPa 0,0 mm 0,0 km/h (0 Bft) S-SO 157 10,7 C 0,0 km/h (0 Bft)
05.05.2015 01:40 14,5 C 14,7 C 77 % 1008,7 hPa 0,0 mm 0,0 km/h (0 Bft) S-SO 157 10,5 C 0,0 km/h (0 Bft)
05.05.2015 01:45 14,7 C 14,7 C 76 % 1008,7 hPa 0,0 mm 0,0 km/h (0 Bft) S-SO 157 10,5 C 0,0 km/h (0 Bft)
05.05.2015 01:50 14,5 C 14,7 C 76 % 1008,7 hPa 0,0 mm 0,0 km/h (0 Bft) S-SO 157 10,3 C 0,0 km/h (0 Bft)
05.05.2015 01:55 14,6 C 14,7 C 76 % 1008,2 hPa 0,0 mm 0,0 km/h (0 Bft) S-SO 157 10,4 C 0,0 km/h (0 Bft)
05.05.2015 02:00 14,3 C 14,7 C 75 % 1008,2 hPa 0,0 mm 0,0 km/h (0 Bft) S-SO 157 9,9 C 0,0 km/h (0 Bft)
05.05.2015 02:05 14,1 C 14,7 C 75 % 1008,2 hPa 0,0 mm 0,0 km/h (0 Bft) S-SO 157 9,7 C 0,0 km/h (0 Bft)
05.05.2015 02:10 14,4 C 14,7 C 75 % 1008,2 hPa 0,0 mm 0,0 km/h (0 Bft) S-SO 157 10,0 C 0,0 km/h (0 Bft)
05.05.2015 02:15 14,3 C 14,7 C 74 % 1008,0 hPa 0,0 mm 0,0 km/h (0 Bft) S-SO 157 9,7 C 0,0 km/h (0 Bft)
05.05.2015 02:20 14,1 C 14,7 C 74 % 1008,0 hPa 0,0 mm 0,0 km/h (0 Bft) S-SO 157 9,5 C 0,0 km/h (0 Bft)
05.05.2015 02:25 13,9 C 14,7 C 74 % 1008,0 hPa 0,0 mm 0,0 km/h (0 Bft) S-SO 157 9,3 C 0,0 km/h (0 Bft)
05.05.2015 02:30 14,0 C 14,7 C 74 % 1008,0 hPa 0,0 mm 0,0 km/h (0 Bft) S-SO 157 9,4 C 0,0 km/h (0 Bft)
05.05.2015 02:35 14,2 C 14,7 C 74 % 1007,7 hPa 0,0 mm 0,0 km/h (0 Bft) S-SO 157 9,6 C 0,0 km/h (0 Bft)
05.05.2015 02:40 14,3 C 14,7 C 73 % 1007,7 hPa 0,0 mm 0,0 km/h (0 Bft) S-SO 157 9,5 C 0,0 km/h (0 Bft)
05.05.2015 02:45 14,2 C 14,7 C 73 % 1007,7 hPa 0,0 mm 0,0 km/h (0 Bft) S-SO 157 9,4 C 0,0 km/h (0 Bft)
05.05.2015 02:50 14,5 C 14,7 C 72 % 1007,7 hPa 0,0 mm 0,0 km/h (0 Bft) S-SO 157 9,5 C 0,0 km/h (0 Bft)
05.05.2015 02:55 14,3 C 14,7 C 72 % 1007,2 hPa 0,0 mm 0,0 km/h (0 Bft) S-SO 157 9,3 C 0,0 km/h (0 Bft)
05.05.2015 03:00 14,4 C 14,7 C 72 % 1007,2 hPa 0,0 mm 0,0 km/h (0 Bft) S-SO 157 9,4 C 0,0 km/h (0 Bft)
05.05.2015 03:05 14,1 C 14,7 C 72 % 1007,2 hPa 0,0 mm 0,0 km/h (0 Bft) S-SO 157 9,1 C 0,0 km/h (0 Bft)
05.05.2015 03:10 14,1 C 14,7 C 72 % 1007,2 hPa 0,0 mm 0,0 km/h (0 Bft) S-SO 157 9,1 C 0,0 km/h (0 Bft)
05.05.2015 03:15 14,4 C 14,7 C 71 % 1007,2 hPa 0,0 mm 0,0 km/h (0 Bft) S-SO 157 9,2 C 0,0 km/h (0 Bft)
05.05.2015 03:25 14,2 C 14,7 C 71 % 1007,1 hPa 0,0 mm 0,0 km/h (0 Bft) W-SW 247 9,0 C 0,0 km/h (0 Bft)
05.05.2015 03:30 14,6 C 14,9 C 69 % 1007,1 hPa 0,0 mm 1,3 km/h (1 Bft) W-SW 247 9,0 C 4,9 km/h (1 Bft)
05.05.2015 03:35 14,7 C 14,9 C 70 % 1007,1 hPa 0,0 mm 1,3 km/h (1 Bft) W-SW 247 9,3 C 4,9 km/h (1 Bft)
05.05.2015 03:40 14,6 C 14,9 C 69 % 1007,1 hPa 0,0 mm 0,0 km/h (0 Bft) W-SW 247 9,0 C 0,0 km/h (0 Bft)
05.05.2015 03:45 14,9 C 14,9 C 69 % 1007,1 hPa 0,0 mm 0,0 km/h (0 Bft) W-SW 247 9,3 C 0,0 km/h (0 Bft)
05.05.2015 03:50 15,1 C 15,0 C 69 % 1007,1 hPa 0,0 mm 0,0 km/h (0 Bft) W-SW 247 9,5 C 0,0 km/h (0 Bft)
05.05.2015 03:55 15,1 C 15,0 C 69 % 1007,1 hPa 0,0 mm 0,0 km/h (0 Bft) W-SW 247 9,5 C 0,0 km/h (0 Bft)
05.05.2015 03:58 15,2 C 15,8 C 69 % 1007,3 hPa 0,0 mm 0,0 km/h (0 Bft) N-NO 22 9,6 C 0,0 km/h (0 Bft)
05.05.2015 03:59 15,2 C 15,8 C 69 % 1007,3 hPa 0,0 mm 0,0 km/h (0 Bft) N-NO 22 9,6 C 0,0 km/h (0 Bft)
05.05.2015 04:05 15,2 C 15,8 C 69 % 1007,3 hPa 0,0 mm 0,0 km/h (0 Bft) NO 45 9,6 C 0,0 km/h (0 Bft)
05.05.2015 04:10 15,2 C 15,8 C 69 % 1007,3 hPa 0,0 mm 0,0 km/h (0 Bft) NO 45 9,6 C 0,0 km/h (0 Bft)
05.05.2015 04:15 15,4 C 15,9 C 69 % 1007,4 hPa 0,0 mm 0,3 km/h (0 Bft) NO 45 9,7 C 0,0 km/h (0 Bft)
05.05.2015 04:20 15,3 C 15,9 C 69 % 1007,4 hPa 0,0 mm 0,3 km/h (0 Bft) S-SO 157 9,6 C 0,0 km/h (0 Bft)
05.05.2015 04:25 15,6 C 16,0 C 69 % 1007,4 hPa 0,0 mm 0,3 km/h (0 Bft) SO 135 9,9 C 0,0 km/h (0 Bft)
05.05.2015 04:30 15,8 C 16,3 C 68 % 1007,4 hPa 0,0 mm 0,5 km/h (0 Bft) O-SO 112 9,9 C 6,7 km/h (2 Bft)
05.05.2015 04:35 16,2 C 16,7 C 67 % 1007,1 hPa 0,0 mm 0,5 km/h (0 Bft) O 90 10,1 C 0,0 km/h (0 Bft)
05.05.2015 04:40 16,0 C 16,8 C 67 % 1007,1 hPa 0,0 mm 0,5 km/h (0 Bft) SO 135 9,9 C 0,0 km/h (0 Bft)
05.05.2015 04:45 16,1 C 16,8 C 67 % 1007,1 hPa 0,0 mm 0,0 km/h (0 Bft) SO 135 10,0 C 0,0 km/h (0 Bft)
05.05.2015 04:50 16,3 C 16,8 C 66 % 1007,1 hPa 0,0 mm 0,0 km/h (0 Bft) SO 135 9,9 C 0,0 km/h (0 Bft)
05.05.2015 04:55 16,4 C 16,9 C 65 % 1007,1 hPa 0,0 mm 0,0 km/h (0 Bft) W-NW 292 9,8 C 2,8 km/h (1 Bft)
05.05.2015 05:00 16,7 C 17,1 C 64 % 1007,1 hPa 0,0 mm 0,5 km/h (0 Bft) O-SO 112 9,9 C 0,0 km/h (0 Bft)
05.05.2015 05:05 16,5 C 17,1 C 64 % 1007,1 hPa 0,0 mm 0,5 km/h (0 Bft) S-SO 157 9,7 C 0,0 km/h (0 Bft)
05.05.2015 05:10 16,8 C 16,9 C 63 % 1007,1 hPa 0,0 mm 0,0 km/h (0 Bft) SO 135 9,7 C 0,0 km/h (0 Bft)
05.05.2015 05:15 16,8 C 16,9 C 62 % 1006,8 hPa 0,0 mm 0,3 km/h (0 Bft) O-SO 112 9,5 C 0,0 km/h (0 Bft)
05.05.2015 05:20 16,6 C 17,0 C 63 % 1006,8 hPa 0,0 mm 1,0 km/h (0 Bft) S-SO 157 9,5 C 0,0 km/h (0 Bft)
05.05.2015 05:25 16,7 C 17,0 C 63 % 1006,8 hPa 0,0 mm 1,0 km/h (0 Bft) SO 135 9,6 C 0,0 km/h (0 Bft)
05.05.2015 05:30 16,5 C 16,9 C 63 % 1006,8 hPa 0,0 mm 1,0 km/h (0 Bft) O-SO 112 9,4 C 2,8 km/h (1 Bft)
05.05.2015 05:35 16,5 C 16,9 C 63 % 1006,5 hPa 0,0 mm 0,8 km/h (0 Bft) O-SO 112 9,4 C 0,0 km/h (0 Bft)
05.05.2015 05:40 16,6 C 16,9 C 63 % 1006,5 hPa 0,0 mm 0,5 km/h (0 Bft) O-SO 112 9,5 C 0,0 km/h (0 Bft)
05.05.2015 05:45 16,3 C 16,7 C 63 % 1006,5 hPa 0,0 mm 0,5 km/h (0 Bft) SO 135 9,2 C 0,0 km/h (0 Bft)
05.05.2015 05:50 16,4 C 16,5 C 63 % 1006,5 hPa 0,0 mm 0,3 km/h (0 Bft) SO 135 9,3 C 0,0 km/h (0 Bft)
05.05.2015 05:55 16,3 C 16,5 C 63 % 1006,6 hPa 0,0 mm 0,3 km/h (0 Bft) SO 135 9,2 C 0,0 km/h (0 Bft)
05.05.2015 06:00 16,2 C 16,4 C 62 % 1006,6 hPa 0,0 mm 0,0 km/h (0 Bft) S-SO 157 8,9 C 0,0 km/h (0 Bft)
05.05.2015 06:05 16,3 C 16,5 C 62 % 1006,6 hPa 0,0 mm 0,0 km/h (0 Bft) S 180 9,0 C 0,0 km/h (0 Bft)
05.05.2015 06:10 16,1 C 16,4 C 62 % 1006,6 hPa 0,0 mm 0,0 km/h (0 Bft) S 180 8,8 C 0,0 km/h (0 Bft)
05.05.2015 06:15 16,0 C 16,4 C 62 % 1006,6 hPa 0,0 mm 0,0 km/h (0 Bft) S 180 8,7 C 0,0 km/h (0 Bft)
05.05.2015 06:20 16,0 C 16,4 C 62 % 1006,6 hPa 0,0 mm 0,8 km/h (0 Bft) S-SO 157 8,7 C 8,3 km/h (2 Bft)
05.05.2015 06:25 16,1 C 16,5 C 62 % 1006,6 hPa 0,0 mm 0,8 km/h (0 Bft) S-SO 157 8,8 C 0,0 km/h (0 Bft)
05.05.2015 06:30 15,9 C 16,5 C 63 % 1006,6 hPa 0,0 mm 0,0 km/h (0 Bft) W-SW 247 8,9 C 0,0 km/h (0 Bft)
05.05.2015 06:35 15,8 C 16,4 C 63 % 1006,5 hPa 0,0 mm 0,0 km/h (0 Bft) SW 225 8,8 C 0,0 km/h (0 Bft)
05.05.2015 06:40 15,7 C 16,4 C 63 % 1006,5 hPa 0,0 mm 0,0 km/h (0 Bft) W-SW 247 8,7 C 0,0 km/h (0 Bft)
05.05.2015 06:45 16,1 C 16,9 C 63 % 1006,5 hPa 0,0 mm 0,0 km/h (0 Bft) S-SO 157 9,1 C 0,0 km/h (0 Bft)
05.05.2015 06:50 16,0 C 17,7 C 63 % 1006,5 hPa 0,0 mm 0,0 km/h (0 Bft) S 180 9,0 C 0,0 km/h (0 Bft)
05.05.2015 06:55 16,0 C 17,7 C 63 % 1006,7 hPa 0,0 mm 0,0 km/h (0 Bft) S 180 9,0 C 0,0 km/h (0 Bft)
05.05.2015 07:00 16,1 C 17,6 C 63 % 1006,7 hPa 0,0 mm 0,0 km/h (0 Bft) O-SO 112 9,1 C 0,0 km/h (0 Bft)
05.05.2015 07:05 16,4 C 17,9 C 63 % 1006,7 hPa 0,0 mm 0,3 km/h (0 Bft) O-NO 67 9,3 C 0,0 km/h (0 Bft)
05.05.2015 07:10 16,7 C 18,6 C 63 % 1006,7 hPa 0,0 mm 0,3 km/h (0 Bft) N-NO 22 9,6 C 0,0 km/h (0 Bft)
05.05.2015 07:15 16,8 C 19,1 C 63 % 1006,6 hPa 0,0 mm 0,0 km/h (0 Bft) NO 45 9,7 C 0,0 km/h (0 Bft)
05.05.2015 07:20 16,8 C 19,9 C 63 % 1006,6 hPa 0,0 mm 0,5 km/h (0 Bft) NO 45 9,7 C 0,0 km/h (0 Bft)
05.05.2015 07:25 16,8 C 19,9 C 62 % 1006,6 hPa 0,0 mm 0,3 km/h (0 Bft) W-SW 247 9,5 C 0,0 km/h (0 Bft)
05.05.2015 07:30 16,9 C 19,6 C 62 % 1006,6 hPa 0,0 mm 0,0 km/h (0 Bft) O 90 9,6 C 0,0 km/h (0 Bft)
05.05.2015 07:35 17,3 C 19,8 C 62 % 1006,8 hPa 0,0 mm 0,0 km/h (0 Bft) O-SO 112 9,9 C 0,0 km/h (0 Bft)
05.05.2015 07:40 18,1 C 22,0 C 62 % 1006,8 hPa 0,0 mm 0,0 km/h (0 Bft) N-NO 22 10,7 C 0,0 km/h (0 Bft)
05.05.2015 07:45 18,4 C 22,2 C 61 % 1006,8 hPa 0,0 mm 0,0 km/h (0 Bft) N-NO 22 10,7 C 3,9 km/h (1 Bft)
05.05.2015 07:50 18,4 C 22,1 C 61 % 1006,8 hPa 0,0 mm 0,5 km/h (0 Bft) W-SW 247 10,7 C 2,6 km/h (1 Bft)
05.05.2015 07:55 18,5 C 22,1 C 61 % 1006,9 hPa 0,0 mm 0,5 km/h (0 Bft) S-SO 157 10,8 C 0,0 km/h (0 Bft)
05.05.2015 08:00 18,7 C 22,4 C 61 % 1006,9 hPa 0,0 mm 0,3 km/h (0 Bft) NW 315 11,0 C 0,0 km/h (0 Bft)
05.05.2015 08:05 19,0 C 23,1 C 60 % 1006,9 hPa 0,0 mm 0,3 km/h (0 Bft) O-SO 112 11,1 C 0,0 km/h (0 Bft)
05.05.2015 08:10 19,2 C 22,9 C 61 % 1006,9 hPa 0,0 mm 0,8 km/h (0 Bft) N-NW 337 11,5 C 10,6 km/h (2 Bft)
05.05.2015 08:15 19,7 C 24,3 C 60 % 1007,0 hPa 0,0 mm 0,5 km/h (0 Bft) N 360 11,7 C 0,0 km/h (0 Bft)
05.05.2015 08:20 19,9 C 24,1 C 59 % 1007,0 hPa 0,0 mm 0,8 km/h (0 Bft) N-NO 22 11,6 C 0,0 km/h (0 Bft)
05.05.2015 08:25 19,7 C 23,6 C 59 % 1007,0 hPa 0,0 mm 1,6 km/h (1 Bft) SO 135 11,5 C 0,0 km/h (0 Bft)
05.05.2015 08:30 19,7 C 23,1 C 59 % 1007,0 hPa 0,0 mm 1,3 km/h (1 Bft) S-SO 157 11,5 C 3,1 km/h (1 Bft)
05.05.2015 08:35 20,0 C 23,4 C 59 % 1007,2 hPa 0,0 mm 0,5 km/h (0 Bft) SO 135 11,7 C 0,0 km/h (0 Bft)
05.05.2015 08:40 21,2 C 26,3 C 58 % 1007,2 hPa 0,0 mm 0,5 km/h (0 Bft) NW 315 12,6 C 4,9 km/h (1 Bft)
05.05.2015 08:45 22,1 C 28,4 C 57 % 1007,2 hPa 0,0 mm 0,3 km/h (0 Bft) NO 45 13,2 C 0,0 km/h (0 Bft)
05.05.2015 08:50 22,8 C 30,0 C 56 % 1007,2 hPa 0,0 mm 0,8 km/h (0 Bft) O-NO 67 13,6 C 2,8 km/h (1 Bft)
05.05.2015 08:55 23,2 C 30,8 C 55 % 1007,1 hPa 0,0 mm 0,5 km/h (0 Bft) S-SO 157 13,6 C 0,0 km/h (0 Bft)
05.05.2015 09:00 23,5 C 32,1 C 53 % 1007,1 hPa 0,0 mm 0,8 km/h (0 Bft) O-SO 112 13,4 C 4,4 km/h (1 Bft)
05.05.2015 09:05 22,3 C 30,2 C 55 % 1007,1 hPa 0,0 mm 0,8 km/h (0 Bft) O-NO 67 12,8 C 0,0 km/h (0 Bft)
05.05.2015 09:10 21,1 C 27,2 C 55 % 1007,1 hPa 0,0 mm 0,5 km/h (0 Bft) O 90 11,7 C 0,0 km/h (0 Bft)
05.05.2015 09:15 20,9 C 25,8 C 55 % 1007,5 hPa 0,0 mm 0,5 km/h (0 Bft) O 90 11,5 C 0,0 km/h (0 Bft)
05.05.2015 09:20 21,2 C 25,4 C 56 % 1007,5 hPa 0,0 mm 1,3 km/h (1 Bft) O-SO 112 12,1 C 0,0 km/h (0 Bft)
05.05.2015 09:25 21,7 C 26,0 C 56 % 1007,5 hPa 0,0 mm 1,0 km/h (0 Bft) NO 45 12,5 C 4,9 km/h (1 Bft)
05.05.2015 09:30 21,9 C 26,7 C 54 % 1007,5 hPa 0,0 mm 2,3 km/h (1 Bft) O-NO 67 12,2 C 5,2 km/h (1 Bft)
05.05.2015 09:35 22,5 C 27,5 C 54 % 1007,2 hPa 0,0 mm 3,6 km/h (1 Bft) NO 45 12,7 C 6,2 km/h (2 Bft)
05.05.2015 09:40 23,1 C 28,0 C 51 % 1007,2 hPa 0,0 mm 4,7 km/h (1 Bft) O-SO 112 12,4 C 9,8 km/h (2 Bft)
05.05.2015 09:45 22,9 C 27,5 C 52 % 1007,2 hPa 0,0 mm 4,4 km/h (1 Bft) NO 45 12,5 C 0,0 km/h (0 Bft)
05.05.2015 09:50 23,5 C 28,2 C 50 % 1007,2 hPa 0,0 mm 2,6 km/h (1 Bft) SO 135 12,5 C 6,5 km/h (2 Bft)
05.05.2015 09:55 23,7 C 28,7 C 50 % 1007,4 hPa 0,0 mm 1,6 km/h (1 Bft) O 90 12,6 C 0,0 km/h (0 Bft)
05.05.2015 10:00 23,6 C 28,6 C 49 % 1007,4 hPa 0,0 mm 1,6 km/h (1 Bft) O-NO 67 12,2 C 4,7 km/h (1 Bft)
05.05.2015 10:05 23,2 C 27,9 C 50 % 1007,4 hPa 0,0 mm 1,3 km/h (1 Bft) W-NW 292 12,2 C 4,9 km/h (1 Bft)
05.05.2015 10:10 23,4 C 27,5 C 49 % 1007,4 hPa 0,0 mm 2,1 km/h (1 Bft) N-NW 337 12,1 C 2,8 km/h (1 Bft)
05.05.2015 10:15 23,4 C 27,3 C 50 % 1007,6 hPa 0,0 mm 1,8 km/h (1 Bft) W-SW 247 12,4 C 0,0 km/h (0 Bft)
05.05.2015 10:20 23,4 C 27,3 C 50 % 1007,6 hPa 0,0 mm 1,8 km/h (1 Bft) S 180 12,4 C 11,4 km/h (2 Bft)
05.05.2015 10:25 23,5 C 27,4 C 50 % 1007,6 hPa 0,0 mm 1,3 km/h (1 Bft) W 270 12,5 C 0,0 km/h (0 Bft)
05.05.2015 10:30 23,5 C 27,6 C 51 % 1007,6 hPa 0,0 mm 0,8 km/h (0 Bft) SO 135 12,8 C 0,0 km/h (0 Bft)
05.05.2015 10:35 23,8 C 28,0 C 51 % 1007,7 hPa 0,0 mm 0,8 km/h (0 Bft) O-SO 112 13,0 C 0,0 km/h (0 Bft)
05.05.2015 10:40 24,2 C 28,8 C 52 % 1007,7 hPa 0,0 mm 0,8 km/h (0 Bft) NW 315 13,7 C 2,8 km/h (1 Bft)
05.05.2015 10:45 24,5 C 29,2 C 49 % 1007,7 hPa 0,0 mm 1,6 km/h (1 Bft) SW 225 13,1 C 4,1 km/h (1 Bft)
05.05.2015 10:50 24,7 C 29,4 C 48 % 1007,7 hPa 0,0 mm 3,1 km/h (1 Bft) W-SW 247 12,9 C 15,3 km/h (3 Bft)
05.05.2015 10:55 25,2 C 29,8 C 48 % 1007,9 hPa 0,0 mm 3,9 km/h (1 Bft) NW 315 13,4 C 6,2 km/h (2 Bft)
05.05.2015 11:00 25,9 C 31,0 C 48 % 1007,9 hPa 0,0 mm 4,1 km/h (1 Bft) N-NO 22 14,0 C 9,3 km/h (2 Bft)
05.05.2015 11:05 26,4 C 32,0 C 46 % 1007,9 hPa 0,0 mm 4,9 km/h (1 Bft) N-NW 337 13,8 C 6,0 km/h (2 Bft)
05.05.2015 11:10 26,6 C 32,0 C 46 % 1007,9 hPa 0,0 mm 5,2 km/h (1 Bft) W 270 14,0 C 4,7 km/h (1 Bft)
05.05.2015 11:15 26,8 C 31,9 C 45 % 1008,1 hPa 0,0 mm 5,2 km/h (1 Bft) N-NO 22 13,9 C 7,8 km/h (2 Bft)
05.05.2015 11:20 26,8 C 32,0 C 45 % 1008,1 hPa 0,0 mm 4,9 km/h (1 Bft) N-NW 337 13,9 C 4,4 km/h (1 Bft)
05.05.2015 11:25 26,7 C 31,8 C 45 % 1008,1 hPa 0,0 mm 5,4 km/h (1 Bft) NW 315 13,8 C 3,1 km/h (1 Bft)
05.05.2015 11:30 27,0 C 31,8 C 45 % 1008,1 hPa 0,0 mm 4,7 km/h (1 Bft) W 270 14,0 C 3,4 km/h (1 Bft)
05.05.2015 11:35 27,3 C 32,7 C 45 % 1008,2 hPa 0,0 mm 4,4 km/h (1 Bft) N-NW 337 14,3 C 8,5 km/h (2 Bft)
05.05.2015 11:40 28,0 C 33,4 C 45 % 1008,2 hPa 0,0 mm 5,7 km/h (1 Bft) W-NW 292 14,9 C 8,0 km/h (2 Bft)
05.05.2015 11:45 28,1 C 33,8 C 43 % 1008,2 hPa 0,0 mm 7,3 km/h (2 Bft) N-NO 22 14,3 C 10,9 km/h (2 Bft)
05.05.2015 11:50 27,9 C 33,3 C 41 % 1008,2 hPa 0,0 mm 8,8 km/h (2 Bft) NW 315 13,4 C 16,8 km/h (3 Bft)
05.05.2015 11:55 28,0 C 33,3 C 42 % 1008,8 hPa 0,0 mm 9,8 km/h (2 Bft) NW 315 13,9 C 12,4 km/h (3 Bft)
05.05.2015 12:00 28,1 C 33,2 C 43 % 1008,8 hPa 0,0 mm 9,1 km/h (2 Bft) W-NW 292 14,3 C 19,4 km/h (3 Bft)
05.05.2015 12:05 28,1 C 33,4 C 41 % 1008,8 hPa 0,0 mm 9,1 km/h (2 Bft) NW 315 13,6 C 5,2 km/h (1 Bft)
05.05.2015 12:10 27,8 C 32,5 C 42 % 1008,8 hPa 0,0 mm 8,3 km/h (2 Bft) W 270 13,7 C 9,3 km/h (2 Bft)
05.05.2015 12:15 27,8 C 32,6 C 39 % 1008,9 hPa 0,0 mm 9,8 km/h (2 Bft) NW 315 12,6 C 13,7 km/h (3 Bft)
05.05.2015 12:20 27,8 C 32,1 C 38 % 1008,9 hPa 0,0 mm 10,6 km/h (2 Bft) NW 315 12,2 C 16,1 km/h (3 Bft)
05.05.2015 12:25 27,8 C 31,6 C 40 % 1008,9 hPa 0,0 mm 11,4 km/h (2 Bft) N-NO 22 12,9 C 25,6 km/h (4 Bft)
05.05.2015 12:30 27,4 C 30,6 C 43 % 1008,9 hPa 0,0 mm 13,7 km/h (3 Bft) W 270 13,7 C 15,8 km/h (3 Bft)
05.05.2015 12:35 27,0 C 30,4 C 46 % 1009,1 hPa 0,0 mm 14,2 km/h (3 Bft) N-NW 337 14,4 C 12,4 km/h (3 Bft)
05.05.2015 12:40 26,9 C 29,8 C 47 % 1009,1 hPa 0,0 mm 11,9 km/h (2 Bft) W 270 14,6 C 26,2 km/h (4 Bft)
05.05.2015 12:45 26,6 C 29,2 C 48 % 1009,1 hPa 0,0 mm 9,6 km/h (2 Bft) NW 315 14,7 C 5,7 km/h (1 Bft)
05.05.2015 12:50 27,0 C 29,2 C 47 % 1009,1 hPa 0,0 mm 8,0 km/h (2 Bft) N-NO 22 14,7 C 9,1 km/h (2 Bft)
05.05.2015 12:55 26,9 C 29,2 C 48 % 1009,4 hPa 0,0 mm 8,3 km/h (2 Bft) W-NW 292 14,9 C 15,3 km/h (3 Bft)
05.05.2015 13:00 25,9 C 27,9 C 48 % 1009,4 hPa 0,0 mm 9,8 km/h (2 Bft) W-NW 292 14,0 C 13,5 km/h (3 Bft)
05.05.2015 13:05 25,1 C 27,0 C 47 % 1009,4 hPa 0,0 mm 9,8 km/h (2 Bft) N 360 13,0 C 13,7 km/h (3 Bft)
05.05.2015 13:10 24,9 C 26,3 C 48 % 1009,4 hPa 0,0 mm 6,2 km/h (2 Bft) W-NW 292 13,1 C 2,6 km/h (1 Bft)
05.05.2015 13:15 25,1 C 27,1 C 48 % 1009,5 hPa 0,0 mm 4,9 km/h (1 Bft) N-NO 22 13,3 C 8,5 km/h (2 Bft)
05.05.2015 13:20 24,9 C 27,1 C 47 % 1009,5 hPa 0,0 mm 4,7 km/h (1 Bft) O-NO 67 12,8 C 5,4 km/h (1 Bft)
05.05.2015 13:25 25,2 C 27,6 C 46 % 1009,5 hPa 0,0 mm 7,0 km/h (2 Bft) N-NO 22 12,7 C 13,7 km/h (3 Bft)
05.05.2015 13:30 25,1 C 28,2 C 46 % 1009,5 hPa 0,0 mm 7,5 km/h (2 Bft) NW 315 12,7 C 13,2 km/h (3 Bft)
05.05.2015 13:35 25,6 C 28,7 C 45 % 1009,4 hPa 0,0 mm 7,0 km/h (2 Bft) N-NW 337 12,8 C 4,9 km/h (1 Bft)
05.05.2015 13:40 25,5 C 28,7 C 44 % 1009,4 hPa 0,0 mm 7,8 km/h (2 Bft) NW 315 12,3 C 7,3 km/h (2 Bft)
05.05.2015 13:45 25,4 C 28,5 C 43 % 1009,4 hPa 0,0 mm 8,0 km/h (2 Bft) N 360 11,9 C 7,3 km/h (2 Bft)
05.05.2015 13:50 25,7 C 28,6 C 44 % 1009,4 hPa 0,0 mm 6,0 km/h (2 Bft) N-NO 22 12,5 C 2,8 km/h (1 Bft)
05.05.2015 13:55 25,9 C 29,6 C 43 % 1009,5 hPa 0,0 mm 4,9 km/h (1 Bft) W 270 12,3 C 4,9 km/h (1 Bft)
05.05.2015 14:00 25,8 C 29,5 C 44 % 1009,5 hPa 0,0 mm 3,9 km/h (1 Bft) S-SW 202 12,6 C 6,0 km/h (2 Bft)
05.05.2015 14:05 25,7 C 29,3 C 42 % 1009,5 hPa 0,0 mm 5,7 km/h (1 Bft) O-NO 67 11,8 C 13,2 km/h (3 Bft)
05.05.2015 14:10 25,9 C 29,1 C 44 % 1009,5 hPa 0,0 mm 9,6 km/h (2 Bft) N-NW 337 12,7 C 14,2 km/h (3 Bft)
05.05.2015 14:15 26,0 C 29,4 C 42 % 1009,6 hPa 0,0 mm 10,1 km/h (2 Bft) NW 315 12,1 C 18,1 km/h (3 Bft)
05.05.2015 14:20 26,4 C 30,3 C 43 % 1009,6 hPa 0,0 mm 8,8 km/h (2 Bft) NW 315 12,8 C 14,8 km/h (3 Bft)
05.05.2015 14:25 26,5 C 30,3 C 42 % 1009,6 hPa 0,0 mm 9,8 km/h (2 Bft) NW 315 12,5 C 10,9 km/h (2 Bft)
05.05.2015 14:30 26,3 C 29,9 C 41 % 1009,6 hPa 0,0 mm 14,0 km/h (3 Bft) NO 45 12,0 C 16,3 km/h (3 Bft)
05.05.2015 14:35 26,0 C 29,2 C 42 % 1009,6 hPa 0,0 mm 15,5 km/h (3 Bft) W-NW 292 12,1 C 16,8 km/h (3 Bft)
05.05.2015 14:40 25,4 C 28,0 C 43 % 1009,6 hPa 0,0 mm 16,3 km/h (3 Bft) NW 315 11,9 C 30,0 km/h (5 Bft)
05.05.2015 14:45 25,3 C 27,9 C 44 % 1009,6 hPa 0,0 mm 15,0 km/h (3 Bft) SW 225 12,2 C 14,0 km/h (3 Bft)
05.05.2015 14:50 25,2 C 28,2 C 44 % 1009,6 hPa 0,0 mm 12,9 km/h (3 Bft) W-SW 247 12,1 C 25,6 km/h (4 Bft)
05.05.2015 14:55 24,9 C 27,8 C 43 % 1010,1 hPa 0,0 mm 12,7 km/h (3 Bft) W 270 11,4 C 15,8 km/h (3 Bft)
05.05.2015 15:00 23,7 C 26,0 C 43 % 1010,1 hPa 0,0 mm 14,5 km/h (3 Bft) NW 315 10,4 C 34,4 km/h (5 Bft)
05.05.2015 15:05 23,3 C 25,2 C 43 % 1010,1 hPa 0,0 mm 15,3 km/h (3 Bft) W-NW 292 10,0 C 14,0 km/h (3 Bft)
05.05.2015 15:10 23,1 C 24,8 C 45 % 1010,1 hPa 0,0 mm 14,2 km/h (3 Bft) NW 315 10,5 C 27,4 km/h (4 Bft)
05.05.2015 15:15 23,1 C 24,6 C 46 % 1010,3 hPa 0,0 mm 12,7 km/h (3 Bft) NW 315 10,8 C 10,4 km/h (2 Bft)
05.05.2015 15:20 22,8 C 24,5 C 47 % 1010,3 hPa 0,0 mm 12,2 km/h (2 Bft) W-SW 247 10,9 C 6,7 km/h (2 Bft)
05.05.2015 15:25 22,6 C 24,4 C 47 % 1010,3 hPa 0,0 mm 11,4 km/h (2 Bft) W 270 10,7 C 8,8 km/h (2 Bft)
05.05.2015 15:30 22,4 C 24,2 C 47 % 1010,3 hPa 0,0 mm 10,1 km/h (2 Bft) W-NW 292 10,5 C 8,0 km/h (2 Bft)
05.05.2015 15:35 22,3 C 24,0 C 48 % 1010,4 hPa 0,0 mm 9,6 km/h (2 Bft) W 270 10,8 C 15,8 km/h (3 Bft)
05.05.2015 15:40 22,2 C 24,0 C 48 % 1010,4 hPa 0,0 mm 8,8 km/h (2 Bft) NW 315 10,7 C 12,4 km/h (3 Bft)
05.05.2015 15:45 22,1 C 23,6 C 49 % 1010,4 hPa 0,0 mm 9,6 km/h (2 Bft) NW 315 10,9 C 12,2 km/h (2 Bft)
05.05.2015 15:50 21,8 C 23,0 C 49 % 1010,4 hPa 0,0 mm 10,6 km/h (2 Bft) W 270 10,6 C 16,3 km/h (3 Bft)
05.05.2015 15:55 21,7 C 22,8 C 49 % 1010,4 hPa 0,0 mm 9,3 km/h (2 Bft) NW 315 10,5 C 6,5 km/h (2 Bft)
05.05.2015 16:00 21,7 C 22,8 C 51 % 1010,4 hPa 0,0 mm 7,3 km/h (2 Bft) NW 315 11,1 C 15,0 km/h (3 Bft)
05.05.2015 16:05 21,6 C 22,7 C 51 % 1010,4 hPa 0,0 mm 7,5 km/h (2 Bft) NW 315 11,0 C 6,5 km/h (2 Bft)
05.05.2015 16:10 21,4 C 22,4 C 51 % 1010,4 hPa 0,0 mm 9,8 km/h (2 Bft) NW 315 10,8 C 11,1 km/h (2 Bft)
05.05.2015 16:15 21,3 C 22,4 C 51 % 1010,5 hPa 0,0 mm 9,6 km/h (2 Bft) W 270 10,7 C 13,7 km/h (3 Bft)
05.05.2015 16:20 21,4 C 22,7 C 51 % 1010,5 hPa 0,0 mm 8,0 km/h (2 Bft) NW 315 10,8 C 9,3 km/h (2 Bft)
05.05.2015 16:25 21,6 C 23,0 C 52 % 1010,5 hPa 0,0 mm 7,5 km/h (2 Bft) W-NW 292 11,3 C 10,9 km/h (2 Bft)
05.05.2015 16:30 21,7 C 23,4 C 52 % 1010,5 hPa 0,0 mm 7,3 km/h (2 Bft) NW 315 11,4 C 9,3 km/h (2 Bft)
05.05.2015 16:35 21,8 C 23,6 C 52 % 1010,4 hPa 0,0 mm 8,3 km/h (2 Bft) NW 315 11,5 C 15,3 km/h (3 Bft)
05.05.2015 16:40 21,8 C 23,7 C 52 % 1010,4 hPa 0,0 mm 9,1 km/h (2 Bft) W 270 11,5 C 9,8 km/h (2 Bft)
05.05.2015 16:45 21,8 C 23,8 C 52 % 1010,4 hPa 0,0 mm 8,8 km/h (2 Bft) W-SW 247 11,5 C 9,3 km/h (2 Bft)
05.05.2015 16:50 21,9 C 24,1 C 52 % 1010,4 hPa 0,0 mm 8,8 km/h (2 Bft) NW 315 11,6 C 16,1 km/h (3 Bft)
05.05.2015 16:55 22,0 C 24,1 C 52 % 1010,8 hPa 0,0 mm 9,1 km/h (2 Bft) W-SW 247 11,7 C 6,5 km/h (2 Bft)
05.05.2015 17:00 21,9 C 23,8 C 52 % 1010,8 hPa 0,0 mm 9,1 km/h (2 Bft) NW 315 11,6 C 11,1 km/h (2 Bft)
05.05.2015 17:03 21,6 C 23,4 C 52 % 1010,8 hPa 0,0 mm 8,8 km/h (2 Bft) W-NW 292 11,3 C 20,2 km/h (4 Bft)
05.05.2015 17:08 21,4 C 22,9 C 52 % 1010,8 hPa 0,0 mm 10,1 km/h (2 Bft) NW 315 11,1 C 10,1 km/h (2 Bft)
05.05.2015 17:13 21,3 C 22,6 C 52 % 1011,0 hPa 0,0 mm 9,1 km/h (2 Bft) NW 315 11,0 C 11,1 km/h (2 Bft)
05.05.2015 17:18 21,1 C 22,4 C 53 % 1011,0 hPa 0,0 mm 7,0 km/h (2 Bft) W 270 11,1 C 10,1 km/h (2 Bft)
05.05.2015 17:23 21,1 C 22,1 C 53 % 1011,0 hPa 0,0 mm 7,8 km/h (2 Bft) W-NW 292 11,1 C 4,1 km/h (1 Bft)
05.05.2015 17:28 21,0 C 21,9 C 53 % 1011,0 hPa 0,0 mm 8,0 km/h (2 Bft) NW 315 11,0 C 6,2 km/h (2 Bft)
05.05.2015 17:33 20,9 C 21,9 C 54 % 1010,9 hPa 0,0 mm 6,7 km/h (2 Bft) W-SW 247 11,2 C 14,5 km/h (3 Bft)
05.05.2015 17:38 20,8 C 21,7 C 54 % 1010,9 hPa 0,0 mm 6,2 km/h (2 Bft) NW 315 11,1 C 6,7 km/h (2 Bft)
05.05.2015 17:43 20,7 C 21,7 C 54 % 1010,9 hPa 0,0 mm 5,7 km/h (1 Bft) W-NW 292 11,1 C 5,4 km/h (1 Bft)
05.05.2015 17:48 20,6 C 21,5 C 54 % 1010,9 hPa 0,0 mm 5,4 km/h (1 Bft) W-NW 292 11,0 C 6,7 km/h (2 Bft)
05.05.2015 17:53 20,5 C 21,5 C 55 % 1010,8 hPa 0,0 mm 5,2 km/h (1 Bft) W 270 11,1 C 12,2 km/h (2 Bft)
05.05.2015 17:58 20,6 C 21,8 C 55 % 1010,8 hPa 0,0 mm 5,4 km/h (1 Bft) NW 315 11,2 C 6,2 km/h (2 Bft)
05.05.2015 18:03 20,5 C 21,8 C 54 % 1010,8 hPa 0,0 mm 6,0 km/h (2 Bft) NW 315 10,9 C 8,8 km/h (2 Bft)
05.05.2015 18:08 20,4 C 21,5 C 55 % 1010,8 hPa 0,0 mm 6,2 km/h (2 Bft) NW 315 11,1 C 14,0 km/h (3 Bft)
05.05.2015 18:13 20,3 C 21,3 C 55 % 1011,0 hPa 0,0 mm 6,0 km/h (2 Bft) W 270 11,0 C 9,3 km/h (2 Bft)
05.05.2015 18:18 20,2 C 21,0 C 55 % 1011,0 hPa 0,0 mm 6,0 km/h (2 Bft) N-NW 337 10,9 C 12,4 km/h (3 Bft)
05.05.2015 18:23 20,1 C 20,8 C 56 % 1011,0 hPa 0,0 mm 5,7 km/h (1 Bft) W 270 11,0 C 7,0 km/h (2 Bft)
05.05.2015 18:28 19,9 C 20,5 C 56 % 1011,0 hPa 0,0 mm 5,2 km/h (1 Bft) W-NW 292 10,9 C 5,2 km/h (1 Bft)
05.05.2015 18:33 19,8 C 20,3 C 57 % 1011,0 hPa 0,0 mm 4,1 km/h (1 Bft) W-SW 247 11,0 C 4,4 km/h (1 Bft)
05.05.2015 18:38 19,8 C 20,3 C 57 % 1011,0 hPa 0,0 mm 3,1 km/h (1 Bft) W 270 11,0 C 6,0 km/h (2 Bft)
05.05.2015 18:42 19,8 C 20,3 C 57 % 1011,0 hPa 0,0 mm 3,1 km/h (1 Bft) W 270 11,0 C 6,0 km/h (2 Bft)
05.05.2015 18:45 19,8 C 20,4 C 57 % 1011,0 hPa 0,0 mm 2,8 km/h (1 Bft) W-NW 292 11,0 C 3,6 km/h (1 Bft)
05.05.2015 18:50 19,8 C 20,6 C 58 % 1011,0 hPa 0,0 mm 3,9 km/h (1 Bft) W 270 11,3 C 7,8 km/h (2 Bft)
05.05.2015 18:55 19,7 C 20,5 C 58 % 1011,2 hPa 0,0 mm 6,0 km/h (2 Bft) W-NW 292 11,2 C 15,0 km/h (3 Bft)
05.05.2015 19:00 19,4 C 20,1 C 57 % 1011,2 hPa 0,0 mm 7,5 km/h (2 Bft) W-SW 247 10,7 C 6,7 km/h (2 Bft)
05.05.2015 19:05 19,2 C 19,8 C 57 % 1011,2 hPa 0,0 mm 7,0 km/h (2 Bft) NW 315 10,5 C 6,2 km/h (2 Bft)
05.05.2015 19:10 19,0 C 19,4 C 57 % 1011,2 hPa 0,0 mm 6,0 km/h (2 Bft) W 270 10,3 C 3,4 km/h (1 Bft)
05.05.2015 19:15 19,0 C 19,3 C 58 % 1011,2 hPa 0,0 mm 4,7 km/h (1 Bft) NW 315 10,5 C 6,7 km/h (2 Bft)
05.05.2015 19:20 18,9 C 19,1 C 58 % 1011,2 hPa 0,0 mm 1,8 km/h (1 Bft) W-NW 292 10,5 C 0,0 km/h (0 Bft)
05.05.2015 19:25 18,8 C 19,1 C 59 % 1011,2 hPa 0,0 mm 1,0 km/h (0 Bft) W-SW 247 10,6 C 0,0 km/h (0 Bft)
05.05.2015 19:30 18,7 C 18,9 C 58 % 1011,2 hPa 0,0 mm 3,4 km/h (1 Bft) NW 315 10,3 C 10,9 km/h (2 Bft)
05.05.2015 19:35 18,6 C 18,8 C 58 % 1011,4 hPa 0,0 mm 4,4 km/h (1 Bft) W-SW 247 10,2 C 4,4 km/h (1 Bft)
05.05.2015 19:40 18,4 C 18,7 C 58 % 1011,4 hPa 0,0 mm 4,1 km/h (1 Bft) W 270 10,0 C 0,0 km/h (0 Bft)
05.05.2015 19:45 18,2 C 18,5 C 58 % 1011,4 hPa 0,0 mm 3,4 km/h (1 Bft) W 270 9,8 C 3,4 km/h (1 Bft)
05.05.2015 19:50 18,1 C 18,3 C 58 % 1011,4 hPa 0,0 mm 2,3 km/h (1 Bft) NW 315 9,7 C 0,0 km/h (0 Bft)
05.05.2015 19:55 18,0 C 18,1 C 59 % 1011,9 hPa 0,0 mm 2,1 km/h (1 Bft) W 270 9,9 C 5,4 km/h (1 Bft)
05.05.2015 20:00 17,8 C 17,9 C 59 % 1011,9 hPa 0,0 mm 2,8 km/h (1 Bft) NW 315 9,7 C 11,4 km/h (2 Bft)
05.05.2015 20:05 17,9 C 17,9 C 59 % 1011,9 hPa 0,0 mm 4,1 km/h (1 Bft) W 270 9,8 C 6,2 km/h (2 Bft)
05.05.2015 20:10 17,7 C 17,8 C 59 % 1011,9 hPa 0,0 mm 4,1 km/h (1 Bft) W-NW 292 9,6 C 2,8 km/h (1 Bft)
05.05.2015 20:15 17,6 C 17,7 C 59 % 1012,1 hPa 0,0 mm 2,6 km/h (1 Bft) NW 315 9,5 C 0,0 km/h (0 Bft)
05.05.2015 20:20 17,5 C 17,5 C 59 % 1012,1 hPa 0,0 mm 2,1 km/h (1 Bft) W-SW 247 9,4 C 3,6 km/h (1 Bft)
05.05.2015 20:25 17,4 C 17,4 C 60 % 1012,1 hPa 0,0 mm 2,1 km/h (1 Bft) W-NW 292 9,6 C 6,5 km/h (2 Bft)
05.05.2015 20:30 17,3 C 17,3 C 60 % 1012,1 hPa 0,0 mm 2,3 km/h (1 Bft) NW 315 9,5 C 5,7 km/h (1 Bft)
05.05.2015 20:35 17,3 C 17,3 C 60 % 1012,3 hPa 0,0 mm 3,4 km/h (1 Bft) W-SW 247 9,5 C 4,9 km/h (1 Bft)
05.05.2015 20:40 17,2 C 17,2 C 60 % 1012,3 hPa 0,0 mm 3,9 km/h (1 Bft) W-NW 292 9,4 C 4,9 km/h (1 Bft)
05.05.2015 20:45 17,2 C 17,2 C 60 % 1012,3 hPa 0,0 mm 3,6 km/h (1 Bft) NW 315 9,4 C 2,8 km/h (1 Bft)
05.05.2015 20:50 17,0 C 17,1 C 60 % 1012,3 hPa 0,0 mm 2,8 km/h (1 Bft) SW 225 9,2 C 6,0 km/h (2 Bft)
05.05.2015 20:55 17,2 C 17,1 C 60 % 1012,6 hPa 0,0 mm 4,1 km/h (1 Bft) NW 315 9,4 C 15,8 km/h (3 Bft)
05.05.2015 21:00 17,0 C 17,1 C 60 % 1012,6 hPa 0,0 mm 5,4 km/h (1 Bft) W-NW 292 9,2 C 3,9 km/h (1 Bft)
05.05.2015 21:05 16,9 C 16,9 C 60 % 1012,6 hPa 0,0 mm 4,4 km/h (1 Bft) W-NW 292 9,1 C 3,6 km/h (1 Bft)
05.05.2015 21:10 16,7 C 16,8 C 60 % 1012,6 hPa 0,0 mm 1,8 km/h (1 Bft) NW 315 8,9 C 3,6 km/h (1 Bft)
05.05.2015 21:15 16,7 C 16,7 C 61 % 1012,8 hPa 0,0 mm 0,8 km/h (0 Bft) NW 315 9,1 C 0,0 km/h (0 Bft)
05.05.2015 21:20 16,7 C 16,7 C 61 % 1012,8 hPa 0,0 mm 2,1 km/h (1 Bft) W 270 9,1 C 6,0 km/h (2 Bft)
05.05.2015 21:26 16,7 C 16,7 C 61 % 1012,8 hPa 0,0 mm 2,3 km/h (1 Bft) W 270 9,1 C 0,0 km/h (0 Bft)
05.05.2015 21:30 16,6 C 16,6 C 62 % 1012,8 hPa 0,0 mm 2,1 km/h (1 Bft) W-NW 292 9,3 C 3,4 km/h (1 Bft)
05.05.2015 21:35 16,6 C 16,6 C 62 % 1013,0 hPa 0,0 mm 2,8 km/h (1 Bft) W 270 9,3 C 6,0 km/h (2 Bft)
05.05.2015 21:40 16,3 C 16,5 C 65 % 1013,0 hPa 0,0 mm 8,5 km/h (2 Bft) NW 315 9,7 C 15,3 km/h (3 Bft)
05.05.2015 21:43 15,8 C 14,1 C 68 % 1013,0 hPa 0,0 mm 14,5 km/h (3 Bft) N-NW 337 9,9 C 25,6 km/h (4 Bft)
05.05.2015 21:46 15,8 C 15,9 C 68 % 1013,0 hPa 0,0 mm 14,5 km/h (3 Bft) N-NW 337 9,9 C 25,6 km/h (4 Bft)
05.05.2015 21:50 15,3 C 15,4 C 69 % 1013,0 hPa 0,0 mm 17,1 km/h (3 Bft) NW 315 9,6 C 34,7 km/h (5 Bft)
05.05.2015 21:55 15,2 C 15,1 C 69 % 1013,9 hPa 0,0 mm 13,5 km/h (3 Bft) W-NW 292 9,6 C 13,2 km/h (3 Bft)
05.05.2015 22:00 15,0 C 14,9 C 70 % 1013,9 hPa 0,0 mm 9,3 km/h (2 Bft) W-NW 292 9,6 C 10,4 km/h (2 Bft)
05.05.2015 22:05 14,9 C 14,8 C 71 % 1013,9 hPa 0,0 mm 7,5 km/h (2 Bft) W 270 9,7 C 8,3 km/h (2 Bft)
05.05.2015 22:10 14,6 C 14,5 C 73 % 1013,9 hPa 0,0 mm 7,3 km/h (2 Bft) W-SW 247 9,8 C 16,8 km/h (3 Bft)
05.05.2015 22:15 14,4 C 14,4 C 73 % 1013,4 hPa 0,0 mm 8,3 km/h (2 Bft) W 270 9,6 C 10,4 km/h (2 Bft)
05.05.2015 22:20 14,3 C 14,2 C 74 % 1013,4 hPa 0,0 mm 7,0 km/h (2 Bft) S 180 9,7 C 10,6 km/h (2 Bft)
05.05.2015 22:25 14,1 C 13,9 C 74 % 1013,4 hPa 0,0 mm 5,7 km/h (1 Bft) W-NW 292 9,5 C 11,9 km/h (2 Bft)
05.05.2015 22:30 13,8 C 13,4 C 76 % 1013,4 hPa 0,0 mm 6,2 km/h (2 Bft) SO 135 9,6 C 0,0 km/h (0 Bft)
05.05.2015 22:35 13,6 C 13,2 C 76 % 1013,9 hPa 0,0 mm 4,9 km/h (1 Bft) SW 225 9,4 C 5,7 km/h (1 Bft)
05.05.2015 22:40 13,4 C 13,0 C 76 % 1013,9 hPa 0,0 mm 1,8 km/h (1 Bft) SW 225 9,3 C 0,0 km/h (0 Bft)
05.05.2015 22:45 13,1 C 12,8 C 77 % 1013,9 hPa 0,0 mm 1,6 km/h (1 Bft) SW 225 9,2 C 2,8 km/h (1 Bft)
05.05.2015 22:50 12,9 C 12,6 C 78 % 1013,9 hPa 0,7 mm 0,5 km/h (0 Bft) S-SW 202 9,2 C 4,4 km/h (1 Bft)
05.05.2015 22:55 12,8 C 12,5 C 79 % 1013,8 hPa 0,0 mm 1,0 km/h (0 Bft) S 180 9,2 C 3,4 km/h (1 Bft)
05.05.2015 23:00 12,5 C 12,2 C 79 % 1013,8 hPa 0,0 mm 1,3 km/h (1 Bft) W-SW 247 9,0 C 0,0 km/h (0 Bft)
05.05.2015 23:05 12,5 C 12,2 C 80 % 1013,8 hPa 0,0 mm 1,0 km/h (0 Bft) SW 225 9,1 C 4,9 km/h (1 Bft)
05.05.2015 23:10 12,5 C 12,2 C 81 % 1013,8 hPa 0,0 mm 0,8 km/h (0 Bft) S 180 9,3 C 5,4 km/h (1 Bft)
05.05.2015 23:15 12,6 C 12,3 C 81 % 1014,1 hPa 0,0 mm 1,3 km/h (1 Bft) S-SW 202 9,4 C 0,0 km/h (0 Bft)
05.05.2015 23:20 12,6 C 12,3 C 82 % 1014,1 hPa 0,0 mm 1,6 km/h (1 Bft) S 180 9,6 C 0,0 km/h (0 Bft)
05.05.2015 23:25 12,6 C 12,3 C 83 % 1014,1 hPa 0,0 mm 1,3 km/h (1 Bft) S-SW 202 9,8 C 2,6 km/h (1 Bft)
05.05.2015 23:30 12,6 C 12,3 C 83 % 1014,1 hPa 0,0 mm 0,8 km/h (0 Bft) W-SW 247 9,8 C 0,0 km/h (0 Bft)
05.05.2015 23:35 12,6 C 12,3 C 83 % 1014,1 hPa 0,0 mm 0,3 km/h (0 Bft) W 270 9,8 C 0,0 km/h (0 Bft)
05.05.2015 23:40 12,7 C 12,4 C 82 % 1014,1 hPa 0,0 mm 0,5 km/h (0 Bft) NW 315 9,7 C 0,0 km/h (0 Bft)
05.05.2015 23:45 12,8 C 12,5 C 82 % 1014,1 hPa 0,0 mm 1,0 km/h (0 Bft) W 270 9,8 C 5,2 km/h (1 Bft)
05.05.2015 23:50 12,7 C 12,5 C 82 % 1014,1 hPa 0,0 mm 1,6 km/h (1 Bft) N-NO 22 9,7 C 0,0 km/h (0 Bft)
05.05.2015 23:55 12,8 C 12,5 C 82 % 1014,0 hPa 0,0 mm 1,3 km/h (1 Bft) SW 225 9,8 C 0,0 km/h (0 Bft)
_ Min-Zeit 23:10 23:10 12:20 06:50 - 07:45 - - 06:40 23:55
Minimum _ 12,5 C 12,2 C 38 % 1006,5 hPa - 0,0 km/h (0 Bft) - - 8,7 C 0,0 km/h (0 Bft)
_ Max-Zeit 12:05 11:45 00:15 23:50 22:50 21:50 - - 12:55 21:50
Maximum _ 28,1 C 33,8 C 88 % 1014,1 hPa 0,7 mm 17,1 km/h
NW (3 Bft)
- - 14,9 C 34,7 km/h
NW (5 Bft)
Durchschnitt _ 19,1 C 20,8 C 60 % 1009,4 hPa #0,7 mm 3,8 km/h (1 Bft) NW - 10,9 C 5,4 km/h (1 Bft)